CZ-5 R/B, 66143

Orbit data source: Space-Track

CZ-5 R/B, 66143 is space debris in LEO originally from a launch on Thu, 23 Oct 2025 UTC launched from the Wenchang Satellite Launch Center (WSC). Debris objects in space refer to the collection of defunct objects orbiting the Earth. Examples of debris include non-operational satellites, rocket bodies, and fragments generated from explosions, collisions, or faulty payload assembly.

Loading next visibility...
Identifier
66143, 2025-238B
Orbit
LEO
Country
Flag of CNCN / PRC
Related business
Manufacturer
CALT
Mission
Decayed spacecraft
Bus & Motor
CZ-5 H5-2, Unknown motor
Mass
5,100 kg wet, 5,100 kg dry
Launch date (UTC)
2025-10-23 (7 months ago)
Launch vehicle
Unknown
Launch site
Wenchang Satellite Launch Center (WSC)
Object type
Payload
Rocket body
Debris
Shape & HBR
Step Cyl, 8.0 m
Radar Cross Section
46.821 m²

Expand to show TLE details & history
Last TLE update: 3 days ago

TLE from 3 days ago
0 CZ-5 R/B
1 66143U 25238B   26143.87282429  .05896304 -39277-4  42408-3 0  9997
2 66143  15.9336  19.1637 2313242 282.3025  52.9625 11.18620451  9776
Epoch: 2026-05-23T20:56Z
TLE epoch observation values (Epoch: 2026-05-23T20:56:52.018Z)
Latitude
-0.00002°
Longitude
-176.53618°
Altitude
1,238.518 km
Speed
7.583 km/s
True Right ascension
01h 16m 39s
True Declination
0° 00' 00"
Sunlit
Object was in daylight at epoch
Visualization orbit readout
Latitude
Unknown
Longitude
Unknown
Altitude
Unknown
Speed
Unknown
Apparent Right ascension
Unknown
Apparent Declination
Unknown
Sunlit
N/A
Visualization observer readout
Local Sidereal Time
19:47:40
Azimuth
Unknown
Elevation
Unknown
Doppler factor
Unknown
Orbital elements
Apogee altitude
4,026.918 km
Perigee altitude
117.402 km
Semi-major axis
8,450.297 km
Eccentricity
0.23132
Inclination
15.9336°
RAAN
19.1637°
Arg. of periapsis
282.3025°
True anomaly
77.7288°
Mean anomaly
52.9625°
Eccentric anomaly
64.97186°
Mean motion
2.79406 °/min
Orbital period
128.84 mins
BSTAR
0.00042408
Loading maneuver chart data...
Computing Atmospheric mass density...
Loading historical data...
Loading historical data...
Loading historical data...
Loading historical data...
Loading historical data...
Loading historical data...
Loading historical data...
Other satellites on launch #238 in the year 2025 (2025-10-23 UTC)

Documentation

Showing up to 5 results
|